Location: *
(57.8420°S, 159.8600°W)
Time: 21:09:40
(UTC+00:00)

Cosmos 1980 - Visible Passes

Search period start: 19 September 2021 00:00
Search period end: 29 September 2021 00:00
Orbit: 841 x 845 km, 71.0° (Epoch: 19 September)

Date Brightness Start Highest point End Pass type
(mag) Time Alt. Az. Time Alt. Az. Time Alt. Az.
19 Sep 5.5 05:47:56 10° W 05:52:56 30° SSW 05:57:58 10° SE visible
19 Sep 5.8 07:34:23 10° SW 07:38:49 22° S 07:43:16 10° SE visible
19 Sep 5.1 09:19:30 10° SW 09:24:39 32° SSE 09:25:50 29° SE visible
19 Sep 4.6 11:03:44 10° SW 11:07:39 45° SSW 11:07:39 45° SSW visible
19 Sep 5.7 12:48:22 10° SW 12:49:30 15° WSW 12:49:30 15° WSW visible
20 Sep 5.5 05:33:14 10° W 05:38:16 30° SSW 05:43:19 10° SE visible
20 Sep 5.8 07:19:42 10° SW 07:24:08 22° S 07:28:36 10° SE visible
20 Sep 5.1 09:04:52 10° SW 09:09:59 31° SSE 09:11:25 28° SE visible
20 Sep 4.5 10:49:06 10° SW 10:53:14 48° SSW 10:53:14 48° SSW visible
20 Sep 5.7 12:33:41 10° SW 12:35:04 16° WSW 12:35:04 16° WSW visible
21 Sep 5.4 05:18:33 10° W 05:23:36 30° SSW 05:28:41 10° SE visible
21 Sep 5.8 07:05:02 10° SW 07:09:28 22° S 07:13:55 10° SE visible
21 Sep 5.1 08:50:13 10° SW 08:55:20 31° SSE 08:57:00 27° ESE visible
21 Sep 4.4 10:34:28 10° SW 10:38:49 52° SSW 10:38:49 52° SSW visible
21 Sep 5.6 12:19:02 10° SW 12:20:39 17° WSW 12:20:39 17° WSW visible
22 Sep 5.7 06:50:21 10° SW 06:54:48 22° S 06:59:15 10° SE visible
22 Sep 5.2 08:35:35 10° SW 08:40:40 31° SSE 08:42:36 25° ESE visible
22 Sep 4.2 10:19:50 10° SW 10:24:26 56° SSW 10:24:26 56° SSW visible
22 Sep 5.6 12:04:23 10° SW 12:06:16 19° WSW 12:06:16 19° WSW visible
23 Sep 5.7 06:35:40 10° SW 06:40:08 22° S 06:44:34 10° SE visible
23 Sep 5.2 08:20:57 10° SW 08:26:00 30° SSE 08:28:13 23° ESE visible
23 Sep 4.1 10:05:13 10° SW 10:10:03 61° S 10:10:03 61° S visible
23 Sep 5.5 11:49:43 10° SW 11:51:53 20° WSW 11:51:53 20° WSW visible
24 Sep 5.7 06:21:00 10° SW 06:25:27 22° S 06:29:53 10° SE visible
24 Sep 5.2 08:06:19 10° SW 08:11:20 30° SSE 08:13:51 22° ESE visible
24 Sep 4.0 09:50:35 10° SW 09:55:41 65° S 09:55:41 65° S visible
24 Sep 5.4 11:35:05 10° SW 11:37:30 22° WSW 11:37:30 22° WSW visible
25 Sep 5.7 06:06:19 10° SW 06:10:47 22° S 06:15:13 10° SE visible
25 Sep 5.2 07:51:40 10° SW 07:56:41 29° SSE 07:59:29 20° ESE visible
25 Sep 3.9 09:35:57 10° SW 09:41:19 68° SSE 09:41:19 68° SSE visible
25 Sep 5.3 11:20:25 10° SW 11:23:09 24° WSW 11:23:09 24° WSW visible
26 Sep 5.7 05:51:39 10° SW 05:56:06 22° S 06:00:33 10° SE visible
26 Sep 5.2 07:37:02 10° SW 07:42:01 29° SSE 07:45:08 18° ESE visible
26 Sep 3.8 09:21:19 10° SW 09:26:58 69° SE 09:26:58 69° SE visible
26 Sep 5.2 11:05:46 10° SW 11:08:48 26° WSW 11:08:48 26° WSW visible
27 Sep 5.7 05:36:59 10° SW 05:41:25 22° S 05:45:53 10° SE visible
27 Sep 5.2 07:22:23 10° SW 07:27:21 29° SSE 07:30:48 17° ESE visible
27 Sep 3.8 09:06:41 10° SW 09:12:27 67° SE 09:12:38 67° ESE visible
27 Sep 5.1 10:51:07 10° SW 10:54:28 28° WSW 10:54:28 28° WSW visible
28 Sep 5.6 05:22:17 10° SW 05:26:45 22° S 05:31:13 10° SE visible
28 Sep 5.2 07:07:44 10° SW 07:12:41 28° SSE 07:16:29 15° ESE visible
28 Sep 3.8 08:52:03 10° SW 08:57:49 65° SE 08:58:19 62° ESE visible
28 Sep 4.9 10:36:27 10° SW 10:40:09 31° WSW 10:40:09 31° WSW visible
